{"data":{"norad_id":58707,"intl_designator":"2024-002C","name":"STARLINK-11077 [DTC]","alt_names":[],"object_type":"PAYLOAD","status":"ACTIVE","operator":null,"country":"US","launch_date":"2024-01-03","launch_site_code":"AFWTR","launch_vehicle":null,"mission":null,"orbit_class":"UNKNOWN","rcs_meters":null,"size_class":null,"mass_kg":null,"dimensions":null,"purposes":["comms"],"wikipedia_slug":null,"has_3d_model":false,"image_url":null,"decayed_at":null,"tle_current":{"epoch":"2026-05-25T00:21:47.294208Z","epoch_age_seconds":77697,"freshness":"FRESH","line1":"1 58707U 24002C   26145.01513072  .00000564  00000+0  95069-5 0  9990","line2":"2 58707  53.1593 257.8567 0000796  76.6023 283.5084 15.69707644138428","mean_motion":15.69707644,"eccentricity":7.96e-5,"inclination_deg":53.1593,"raan_deg":257.8567,"arg_perigee_deg":76.6023,"mean_anomaly_deg":283.5084,"bstar":9.5069e-6,"rev_number":13842,"period_min":91.73682790577,"perigee_km":359.19715790719,"apogee_km":360.26982688958,"semimajor_km":6737.8704923984,"source":"CELESTRAK","updated_at":"2026-05-25T13:38:18.714919Z"}}}